| Date | Time | Temp. (oF) | Dew Point (oF) | Rel. Hum. (%) | Press. (in.) | Wind Dir. (deg.) | Wind Speed (mph) | Hourly Rainfall (i n.) |
|
|---|---|---|---|---|---|---|---|---|---|
| 1 | 07/19 | 24:00 | 79 | 62 | 57 | 30.16 | 130 | 1 | 0.00 |
| 2 | 07/18 | 23:00 | 81 | 63 | 56 | 30.16 | 130 | 0 | 0.00 |
| 3 | 07/18 | 22:00 | 82 | 61 | 51 | 30.18 | 130 | 1 | 0.00 |
| 4 | 07/18 | 21:00 | 85 | 61 | 45 | 30.18 | 130 | 0 | 0.00 |
| 5 | 07/18 | 20:00 | 88 | 64 | 46 | 30.18 | 150 | 4 | 0.00 |
| 6 | 07/18 | 19:00 | 90 | 66 | 47 | 30.16 | 130 | 4 | 0.00 |
| 7 | 07/18 | 18:00 | 92 | 66 | 44 | 30.17 | 210 | 4 | 0.00 |
| 8 | 07/18 | 17:00 | 93 | 64 | 39 | 30.18 | 140 | 1 | 0.00 |
| 9 | 07/18 | 16:00 | 95 | 64 | 37 | 30.20 | 330 | 6 | 0.00 |
| 10 | 07/18 | 15:00 | 96 | 63 | 35 | 30.21 | 290 | 0 | 0.00 |
| 11 | 07/18 | 14:00 | 97 | 66 | 38 | 30.22 | 290 | 1 | 0.00 |
| 12 | 07/18 | 13:00 | 97 | 66 | 38 | 30.24 | 270 | 4 | 0.00 |
| 13 | 07/18 | 12:00 | 95 | 70 | 46 | 30.26 | 130 | 4 | 0.00 |
| 14 | 07/18 | 11:00 | 90 | 70 | 54 | 30.34 | 270 | 2 | 0.00 |
| 15 | 07/18 | 10:00 | 80 | 70 | 72 | 30.34 | 290 | 2 | 0.00 |
| 16 | 07/18 | 09:00 | 76 | 68 | 78 | 30.34 | 290 | 0 | 0.00 |
| 17 | 07/18 | 08:00 | 72 | 67 | 85 | 30.33 | 290 | 0 | 0.00 |
| 18 | 07/18 | 07:00 | 71 | 65 | 84 | 30.33 | 290 | 0 | 0.00 |
| 19 | 07/18 | 06:00 | 71 | 64 | 81 | 30.31 | 290 | 0 | 0.00 |
| 20 | 07/18 | 05:00 | 71 | 64 | 80 | 30.30 | 290 | 0 | 0.00 |
| 21 | 07/18 | 04:00 | 72 | 64 | 77 | 30.30 | 290 | 0 | 0.00 |
| 22 | 07/18 | 03:00 | 73 | 63 | 73 | 30.30 | 290 | 0 | 0.00 |
| 23 | 07/18 | 02:00 | 74 | 63 | 70 | 30.30 | 290 | 0 | 0.00 |
| 24 | 07/18 | 01:00 | 76 | 64 | 67 | 30.29 | 290 | 0 | 0.00 |